sat.trackr.live / text

‹ back to catalog

STARLINK-33613

NORAD 63286 · 2025-053X

PAYLOAD ACTIVE UNKNOWN

§ Identity

Operator
Country
US
Launch date
2025-03-15
Launch site
AFETR
Launch vehicle
Mass (kg)
RCS (m²)

Purposes: comms

External: N2YO · Heavens-Above · Gunter

§ Orbital elements

Epoch: 2026-05-24T11:40:57.788544Z

Period
94.27 min
Inclination
43.0011°
Eccentricity
0.0001903
Mean motion
15.27605433 rev/d
Perigee alt
481.7 km
Apogee alt
484.3 km
Semi-major
6,861.1 km
B*
4.2304e-4
RAAN
173.8893°
Arg perigee
267.3305°
Mean anomaly
92.7329°
Rev number
6,778

§ Raw data

STARLINK-336131 63286U 25053X   26144.48677996  .00011406  00000+0  42304-3 0  99902 63286  43.0011 173.8893 0001903 267.3305  92.7329 15.27605433 67780

JSON: /api/v1/satellites/63286 · /tle

For live sub-satellite position, see the globe view (requires WebGL).

§ Visibility from observer

Set your observer location to see the next 7 days of passes ≥ 10°. The values pass through the URL so the page stays shareable.

No JS? Fill the form by hand. The geolocation button needs JavaScript.